Flag for U.S.A. Weather past 2 weeks in Decatur, Illinois, U.S.A.

Now
69 °F

Overcast.


Feels Like: 69 °F
Forecast: 63 / 81 °F
Wind: 12 mph from Southwest

Location: Decatur Airport

Current Time: May 5, 2015 at 3:26:38 AM

Latest Report: May 5, 2015 at 2:54 AM


Visibility: 10 mi

Pressure: 30.11 "Hg

Humidity: 63%

Dew point: 56 °F

Location of DecaturLocation

Historic Weather in Decatur — Graph

°F

Decatur temperature yesterday

Maximum temperature yesterday: 80 °F (at 1:54 PM)
Minimum temperature yesterday: 62 °F (at 6:54 AM)
Average temperature yesterday: 71 °F

Past Weeks' High & Low Weather Summary

 TemperatureHumidityPressure
High81 °F (May 3, 1:54 PM)96% (Apr 25, 11:54 AM)30.19 "Hg (Apr 25, 11:54 AM)
Low31 °F (Apr 24, 5:54 AM)15% (Apr 23, 4:54 PM)29.37 "Hg (Apr 20, 2:54 AM)
Average55 °F55%29.94 "Hg
* Reported Apr 20 1:54 AM — May 5 1:54 AM, Decatur, Weather by CustomWeather, © 2015

Note: Actual official high and low records may vary slightly from our data, if they occured in-between our weather recording intervals... More about our weather records

Advertising

Decatur weather history for previous 24 hours

 ConditionsComfort  
Time TempWeatherWind HumidityBarometerVisibility
1:54 AM
Tue, May 5
69 °FOvercast.7 mph68%30.11 "Hg10 mi
12:54 AM66 °FMostly cloudy.8 mph87%30.12 "Hg8 mi
11:54 PM
Mon, May 4
68 °FOvercast.7 mph82%30.12 "Hg10 mi
10:54 PM68 °FMostly cloudy.5 mph87%30.10 "Hg7 mi
9:54 PM69 °FLight rain. Overcast.12 mph81%30.10 "Hg8 mi
8:54 PM71 °FLight rain. Mostly cloudy.13 mph78%30.09 "Hg9 mi
7:54 PM72 °FOvercast.10 mph71%30.08 "Hg10 mi
6:54 PM78 °FOvercast.3 mph50%30.06 "Hg10 mi
5:54 PM79 °FPartly sunny.12 mph47%30.06 "Hg10 mi
4:54 PM79 °FPartly sunny.10 mph47%30.07 "Hg10 mi
3:54 PM79 °FPassing clouds.14 mph47%30.08 "Hg10 mi
2:54 PM79 °FBroken clouds.15 mph44%30.10 "Hg10 mi
1:54 PM80 °FScattered clouds.13 mph47%30.10 "Hg10 mi
12:54 PM79 °FSunny.12 mph50%30.09 "Hg10 mi
11:54 AM76 °FSunny.15 mph58%30.10 "Hg10 mi
10:54 AM73 °FSunny.10 mph69%30.09 "Hg10 mi
9:54 AM68 °FSunny.12 mph78%30.09 "Hg10 mi
8:54 AM66 °FSunny.8 mph81%30.08 "Hg10 mi
7:54 AM63 °FThundershowers. More clouds than sun.7 mph84%30.10 "Hg6 mi
6:54 AM62 °FLight rain. Cloudy.9 mph80%30.06 "Hg6 mi
5:54 AM64 °FLight rain. Mostly cloudy.15 mph68%30.02 "Hg8 mi
4:54 AM65 °FMostly cloudy.9 mph63%29.98 "Hg10 mi
3:54 AM67 °FPassing clouds.13 mph57%29.98 "Hg10 mi
Weather by CustomWeather, © 2015

See weather overviewHow to use our weather pages